Regional Weather Roundup
Issued by NWS

Home | Current Version | Previous Version | Graphics & Text | Print | Product List | Glossary On
Versions: 1 2 3 4 5 6 7 8 9 10 11 12 13 14 15 16 17 18 19 20 21 22 23 24 25 26 27 28 29 30 31 32 33 34 35 36 37 38 39 40 41 42 43 44 45 46 47 48 49 50
000
ASUS43 KLSX 220257
RWRMO

WEATHER SUMMARY FOR MISSOURI
NATIONAL WEATHER SERVICE SPRINGFIELD MO
1000 PM CDT THU SEP 21 2017

NOTE: "FAIR" INDICATES FEW OR NO CLOUDS BELOW 12,000 FEET WITH NO
       SIGNIFICANT WEATHER AND/OR OBSTRUCTIONS TO VISIBILITY.
       CURRENT SKY AND/OR WEATHER CONDITIONS ARE NOT AVAILABLE FOR
       CHILLICOTHE AND FARMINGTON.

MOZ001>031-035>038-043-044-053-054-220400-
...NORTHERN AND WESTERN MISSOURI...

CITY           SKY/WX    TMP DP  RH WIND       PRES   REMARKS
KANSAS CTY INT CLEAR     82  72  71 S18G25    29.88R
LEE`S SUMMIT   CLEAR     82  72  71 S14       29.91R
ST JOSEPH      CLEAR     82  74  76 S12       29.85R
CHILLICOTHE      N/A     82  71  69 SE7       29.91R

$$
MOZ066>068-077>081-088>096-101>105-220400-
...SOUTHWEST MISSOURI...

CITY           SKY/WX    TMP DP  RH WIND       PRES   REMARKS
SPRINGFIELD    CLEAR     79  67  66 S9        29.97R
JOPLIN         CLEAR     78  71  79 S8        29.94R

$$
MOZ032>034-039>042-045>050-055>058-069>072-220400-
...CENTRAL MISSOURI...

CITY           SKY/WX    TMP DP  RH WIND       PRES   REMARKS
COLUMBIA       NOT AVBL
JEFFERSON CITY CLEAR     79  68  69 SE6       29.94R
ROLLA          CLEAR     80  67  64 S9        30.00R
SEDALIA        CLEAR     79  70  74 SE9       29.95R
WARRENSBURG    CLEAR     75  70  83 SE5       29.91R

$$
MOZ051-052-059>065-220400-
...EAST CENTRAL MISSOURI...

CITY           SKY/WX    TMP DP  RH WIND       PRES   REMARKS
ST LOUIS INTL  PTCLDY    83  70  64 SE9       30.00R

$$
MOZ072>076-082>087-097>100-106>115-220400-
...SOUTH CENTRAL AND SOUTHEAST MISSOURI...

CITY           SKY/WX    TMP DP  RH WIND       PRES   REMARKS
CAPE GIRARDEAU CLEAR     75  67  76 E5        30.01R
POPLAR BLUFF   CLEAR     73  71  93 CALM      30.00R
WEST PLAINS    CLEAR     79  69  71 S7        30.03R

$$



USA.gov is the U.S. government's official web portal to all federal, state and local government web resources and services.